FW6934 Weather Reports


Display with metric or nautical units.
time (UTC)temp
F
wind
direction
speed
MPH
gust
MPH
rain 1hr
in
rain 24hr
in
rain mn
in
humidity
%
barometer
mb
20260902232543 59 165 2.0 5.0 0.04 0.38 0.38 89 994.7
20260902232049 59 189 2.0 5.0 0.07 0.38 0.38 89 994.7
20260902231527 59 117 0.0 5.0 0.08 0.38 0.38 89 994.8
20260902231039 59 177 2.0 5.0 0.08 0.38 0.38 89 994.7
20260902230548 59 215 1.0 3.0 0.08 0.38 0.38 89 994.7
20260902230010 59 200 0.0 5.0 0.07 0.37 0.38 89 994.7
20260902225525 58 200 0.0 6.0 0.07 0.37 0.37 89 994.4
20260902225029 58 194 1.0 6.0 0.07 0.37 0.37 89 994.3
20260902224605 58 212 0.0 7.0 0.07 0.37 0.37 89 994.3
20260902224000 58 201 1.0 4.0 0.07 0.37 0.37 89 994.3
20260902223503 58 168 1.0 4.0 0.07 0.37 0.37 89 994.3
20260902223037 58 223 1.0 7.0 0.07 0.37 0.37 89 994.3
20260902222545 58 261 2.0 8.0 0.03 0.33 0.34 89 994.2
20260902222050 58 24 4.0 12.0 0.01 0.31 0.31 89 994.0
20260902221524 58 209 4.0 12.0 0.00 0.30 0.30 89 993.8
20260902221029 58 160 4.0 10.0 0.00 0.30 0.30 89 993.7
20260902220536 58 189 2.0 9.0 0.00 0.30 0.30 89 993.7
20260902220025 58 319 1.0 10.0 0.00 0.30 0.30 89 993.7
20260902215510 58 223 2.0 17.0 0.00 0.30 0.30 89 993.6
20260902215031 58 200 6.0 17.0 0.01 0.30 0.30 89 993.6
20260902214607 58 161 3.0 20.0 0.01 0.30 0.30 89 993.6
20260902214055 58 296 4.0 20.0 0.01 0.30 0.30 89 993.6
20260902213603 58 193 1.0 17.0 0.01 0.30 0.30 89 993.5
20260902213034 58 151 6.0 18.0 0.01 0.30 0.30 89 993.6
20260902212546 58 355 2.0 14.0 0.01 0.30 0.30 89 993.6
20260902212045 58 75 4.0 14.0 0.01 0.30 0.30 89 993.5
20260902211521 57 277 1.0 11.0 0.01 0.30 0.30 89 993.6
20260902211027 57 134 3.0 10.0 0.01 0.30 0.30 89 993.6
20260902210533 57 327 3.0 10.0 0.01 0.30 0.30 89 993.5
20260902210045 57 150 2.0 15.0 0.01 0.30 0.30 89 993.5
20260902205550 57 355 1.0 15.0 0.01 0.30 0.30 89 993.6
20260902205056 57 169 1.0 8.0 0.00 0.28 0.28 89 993.5
20260902204529 57 255 4.0 9.0 0.00 0.28 0.28 89 993.5
20260902204038 57 360 1.0 9.0 0.01 0.28 0.28 89 993.4
20260902203548 57 184 3.0 9.0 0.01 0.28 0.28 89 993.5
20260902203003 57 316 2.0 8.0 0.01 0.28 0.28 89 993.5
20260902202510 57 196 1.0 9.0 0.02 0.28 0.28 89 993.4
20260902202023 57 286 0.0 8.0 0.03 0.28 0.28 89 993.4
20260902201552 57 225 2.0 8.0 0.04 0.28 0.28 89 993.3
20260902201056 57 219 1.0 8.0 0.05 0.28 0.28 89 993.1
20260902200502 57 319 2.0 10.0 0.06 0.28 0.28 89 993.2
20260902200035 57 74 4.0 10.0 0.07 0.28 0.28 89 993.1
20260902195541 57 63 3.0 7.0 0.09 0.28 0.28 89 993.2
20260902195050 57 153 2.0 11.0 0.10 0.28 0.28 89 993.1
20260902194525 57 19 3.0 11.0 0.12 0.28 0.28 89 993.1
20260902194013 57 294 2.0 9.0 0.12 0.28 0.28 89 993.2
20260902193520 57 111 1.0 11.0 0.12 0.28 0.28 88 993.2
20260902193058 57 97 0.0 13.0 0.13 0.28 0.28 88 993.3
20260902192603 57 74 1.0 13.0 0.13 0.27 0.27 88 993.3
20260902192004 57 355 1.0 5.0 0.12 0.26 0.26 89 993.5
20260902191544 57 57 2.0 5.0 0.12 0.25 0.25 88 993.5
20260902191046 57 258 1.0 5.0 0.12 0.24 0.24 88 993.6
20260902190550 57 183 1.0 5.0 0.11 0.23 0.23 88 993.9
20260902190022 57 342 0.0 5.0 0.10 0.22 0.22 88 994.0
20260902185530 57 56 1.0 5.0 0.09 0.20 0.20 88 994.1
20260902185026 57 209 2.0 8.0 0.08 0.19 0.19 88 994.2
20260902184604 57 325 1.0 8.0 0.07 0.17 0.18 88 994.1
20260902184018 57 236 1.0 4.0 0.07 0.16 0.16 88 994.0
20260902183503 57 223 1.0 2.0 0.07 0.16 0.16 88 993.9
20260902183041 57 245 1.0 4.0 0.07 0.15 0.15 87 993.9
20260902182546 57 123 1.0 5.0 0.07 0.14 0.14 87 993.8
20260902182054 57 50 0.0 7.0 0.07 0.14 0.14 87 994.0
20260902181519 57 156 3.0 7.0 0.08 0.13 0.13 87 994.1
20260902181024 57 5 1.0 4.0 0.09 0.12 0.12 87 994.2
20260902180532 57 214 1.0 4.0 0.09 0.12 0.12 87 994.3
20260902180055 57 150 0.0 4.0 0.10 0.12 0.12 87 994.5
20260902175553 57 182 1.0 8.0 0.09 0.11 0.11 87 994.3
20260902175105 57 142 1.0 8.0 0.10 0.11 0.11 87 994.4
20260902174548 57 165 1.0 8.0 0.09 0.10 0.10 86 994.5
20260902174044 57 161 3.0 8.0 0.08 0.09 0.09 86 994.6
20260902173552 58 159 1.0 8.0 0.09 0.09 0.09 86 994.7
20260902173049 58 159 1.0 6.0 0.08 0.08 0.08 85 994.5
20260902172528 58 195 1.0 6.0 0.07 0.07 0.07 85 994.6
20260902172036 58 209 3.0 6.0 0.07 0.07 0.07 85 994.6
20260902171557 58 209 1.0 4.0 0.05 0.05 0.05 84 994.5
20260902171056 59 192 1.0 7.0 0.03 0.03 0.03 84 994.5
20260902170556 59 187 1.0 7.0 0.03 0.03 0.03 84 994.4
20260902170031 59 238 1.0 2.0 0.02 0.02 0.02 83 994.4
20260902165535 59 272 0.0 2.0 0.02 0.02 0.02 83 994.4
20260902165039 59 272 0.0 3.0 0.01 0.01 0.01 83 994.3
20260902164504 59 152 1.0 3.0 0.01 0.01 0.01 82 994.4
20260902164012 60 211 0.0 5.0 0.01 0.01 0.01 82 994.3
20260902163520 60 211 0.0 5.0 0.00 0.00 0.00 82 994.3
20260902163051 60 195 1.0 6.0 0.00 0.00 0.00 82 994.2
20260902162603 60 254 0.0 6.0 0.00 0.00 0.00 81 994.3
20260902162009 60 188 0.0 5.0 0.00 0.00 0.00 81 994.3
20260902161543 60 255 0.0 5.0 0.00 0.00 0.00 82 994.2
20260902161048 60 190 1.0 3.0 0.00 0.00 0.00 81 994.3
20260902160555 60 360 0.0 3.0 0.00 0.00 0.00 82 994.2
20260902160009 60 278 0.0 2.0 0.00 0.00 0.00 82 994.3
20260902155512 60 278 0.0 2.0 0.00 0.00 0.00 82 994.3
20260902155019 59 278 0.0 3.0 0.00 0.00 0.00 82 994.3
20260902154558 59 278 0.0 2.0 0.00 0.00 0.00 82 994.4
20260902154102 59 315 0.0 2.0 0.00 0.00 0.00 83 994.3
20260902153506 59 312 0.0 2.0 0.00 0.00 0.00 83 994.5
20260902153044 59 273 1.0 3.0 0.00 0.00 0.00 83 994.5
20260902152550 59 273 0.0 3.0 0.00 0.00 0.00 83 994.6
20260902152052 59 192 0.0 1.0 0.00 0.00 0.00 83 994.7
20260902151528 59 192 0.0 5.0 0.00 0.00 0.00 82 994.7
20260902151032 59 192 0.0 5.0 0.00 0.00 0.00 82 994.8
20260902150532 59 211 1.0 4.0 0.00 0.00 0.00 82 995.0
20260902150100 58 303 1.0 4.0 0.00 0.00 0.00 82 994.9
20260902145517 58 263 1.0 3.0 0.00 0.00 0.00 82 994.9
20260902145003 58 273 0.0 1.0 0.00 0.00 0.00 82 995.0
20260902144540 58 273 0.0 1.0 0.00 0.00 0.00 82 994.9
20260902144048 58 273 0.0 1.0 0.00 0.00 0.00 82 994.9
20260902143550 58 273 0.0 1.0 0.00 0.00 0.00 82 994.9
20260902143020 58 273 0.0 1.0 0.00 0.00 0.00 82 995.0
20260902142528 58 268 0.0 0.0 0.00 0.00 0.00 82 995.0
20260902142036 58 268 0.0 0.0 0.00 0.00 0.00 82 995.1
20260902141559 58 268 0.0 0.0 0.00 0.00 0.00 82 995.1
20260902141054 58 268 0.0 0.0 0.00 0.00 0.00 81 995.1
20260902140603 58 268 0.0 0.0 0.00 0.00 0.00 81 995.2
20260902140028 58 268 0.0 0.0 0.00 0.00 0.00 81 995.2
20260902135533 58 268 0.0 0.0 0.00 0.00 0.00 81 995.3
20260902135037 58 268 0.0 0.0 0.00 0.00 0.00 81 995.2
20260902134503 58 268 0.0 0.0 0.00 0.00 0.00 81 995.4
20260902134006 58 268 0.0 0.0 0.00 0.00 0.00 81 995.4
20260902133514 58 268 0.0 0.0 0.00 0.00 0.00 80 995.5
20260902133056 58 268 0.0 0.0 0.00 0.00 0.00 80 995.5
20260902132552 58 268 0.0 0.0 0.00 0.00 0.00 80 995.6
20260902132101 58 269 0.0 0.0 0.00 0.00 0.00 80 995.7
20260902131549 58 269 0.0 0.0 0.00 0.00 0.00 80 995.8
20260902131040 58 269 0.0 0.0 0.00 0.00 0.00 80 995.8
20260902130546 58 273 0.0 2.0 0.00 0.00 0.00 80 995.9
20260902130021 58 180 0.0 2.0 0.00 0.00 0.00 80 996.2
20260902125531 58 182 0.0 2.0 0.00 0.00 0.00 80 996.1
20260902125034 58 178 0.0 2.0 0.00 0.00 0.00 80 996.4
20260902124612 58 175 0.0 2.0 0.00 0.00 0.00 80 996.4
20260902124004 58 220 0.0 4.0 0.00 0.00 0.00 80 996.4
20260902123507 58 220 1.0 4.0 0.00 0.00 0.00 80 996.6
20260902123123 58 304 1.0 3.0 0.00 0.00 0.00 80 996.5
20260902122554 58 273 1.0 3.0 0.00 0.00 0.00 80 996.7
20260902122055 58 188 0.0 3.0 0.00 0.00 0.00 80 996.6
20260902121528 58 280 0.0 3.0 0.00 0.00 0.00 80 996.7
20260902121031 58 274 0.0 3.0 0.00 0.00 0.00 80 996.9
20260902120540 58 221 0.0 3.0 0.00 0.00 0.00 80 997.0
20260902120001 58 222 1.0 2.0 0.00 0.00 0.00 80 996.9
20260902115507 58 206 0.0 3.0 0.00 0.00 0.00 80 997.1
20260902115017 58 211 0.0 3.0 0.00 0.00 0.00 80 997.1
20260902114539 58 263 0.0 3.0 0.00 0.00 0.00 80 997.2
20260902114035 58 355 0.0 4.0 0.00 0.00 0.00 80 997.3
20260902113541 58 198 1.0 5.0 0.00 0.00 0.00 80 997.4
20260902113010 58 167 2.0 6.0 0.00 0.00 0.00 80 997.4
20260902112519 58 234 0.0 5.0 0.00 0.00 0.00 80 997.5
20260902112028 58 297 0.0 3.0 0.00 0.00 0.00 80 997.4
20260902111600 58 32 0.0 2.0 0.00 0.00 0.00 80 997.5
20260902111102 58 32 0.0 2.0 0.00 0.00 0.00 80 997.5
20260902110508 58 32 1.0 2.0 0.00 0.00 0.00 81 997.5
20260902110026 58 33 0.0 3.0 0.00 0.00 0.00 80 997.6
20260902105534 58 5 1.0 3.0 0.00 0.00 0.00 81 997.5
20260902105037 58 300 0.0 2.0 0.00 0.00 0.00 81 997.6
20260902104510 58 222 0.0 3.0 0.00 0.00 0.00 81 997.6
20260902104020 58 137 0.0 2.0 0.00 0.00 0.00 81 997.7
20260902103521 58 57 0.0 3.0 0.00 0.00 0.00 82 997.7
20260902103050 58 58 0.0 2.0 0.00 0.00 0.00 82 997.8
20260902102556 58 192 0.0 2.0 0.00 0.00 0.00 82 997.8
20260902102004 58 192 0.0 4.0 0.00 0.00 0.00 82 997.7
20260902101551 58 192 0.0 4.0 0.00 0.00 0.00 82 997.7
20260902101049 58 229 1.0 3.0 0.00 0.00 0.00 82 997.8
20260902100555 58 274 1.0 4.0 0.00 0.00 0.00 83 997.8
20260902100023 58 278 1.0 3.0 0.00 0.00 0.00 83 997.8
20260902095531 58 248 0.0 3.0 0.00 0.00 0.00 83 997.9
20260902095043 58 250 0.0 3.0 0.00 0.00 0.00 83 997.9
20260902094506 58 251 0.0 2.0 0.00 0.00 0.00 83 997.9
20260902094014 57 88 0.0 2.0 0.00 0.00 0.00 83 997.9
20260902093522 57 88 0.0 3.0 0.00 0.00 0.00 84 997.9
20260902093059 57 78 0.0 4.0 0.00 0.00 0.00 84 998.0
20260902092601 57 261 1.0 7.0 0.00 0.00 0.00 84 998.0
20260902092008 57 184 1.0 7.0 0.00 0.00 0.00 84 998.2
20260902091559 57 215 0.0 2.0 0.00 0.00 0.00 84 998.3
20260902091039 57 213 0.0 0.0 0.00 0.00 0.00 84 998.3
20260902090549 57 210 0.0 0.0 0.00 0.00 0.00 84 998.3
20260902090030 57 210 0.0 0.0 0.00 0.00 0.00 84 998.3
20260902085525 57 210 0.0 0.0 0.00 0.00 0.00 83 998.5
20260902085029 57 210 0.0 0.0 0.00 0.00 0.00 83 998.5
20260902084559 57 210 0.0 0.0 0.00 0.00 0.00 83 998.6
20260902084002 58 210 0.0 0.0 0.00 0.00 0.00 82 998.6
20260902083504 58 210 0.0 1.0 0.00 0.00 0.00 82 998.6
20260902083042 58 210 0.0 2.0 0.00 0.00 0.00 82 998.6
20260902082546 58 210 0.0 2.0 0.00 0.00 0.00 82 998.6
20260902082043 58 210 0.0 2.0 0.00 0.00 0.00 82 998.6
20260902081520 58 209 0.0 3.0 0.00 0.00 0.00 81 998.7
20260902081025 58 210 0.0 3.0 0.00 0.00 0.00 81 998.7
20260902080514 59 271 0.0 3.0 0.00 0.00 0.00 81 998.6
20260902080049 59 267 0.0 3.0 0.00 0.00 0.00 80 998.6
20260902075551 59 340 0.0 1.0 0.00 0.00 0.00 80 998.6
20260902075057 59 340 0.0 2.0 0.00 0.00 0.00 80 998.7
20260902074517 60 340 1.0 2.0 0.00 0.00 0.00 79 998.6
20260902074031 60 167 0.0 2.0 0.00 0.00 0.00 79 998.6
20260902073538 60 167 0.0 1.0 0.00 0.00 0.00 79 998.6
20260902073001 60 167 0.0 3.0 0.00 0.00 0.00 79 998.7
20260902072508 60 167 0.0 1.0 0.00 0.00 0.00 79 998.7
20260902072014 60 32 0.0 2.0 0.00 0.00 0.00 79 998.7
20260902071535 61 170 0.0 2.0 0.00 0.00 0.00 79 998.9
20260902071035 61 170 0.0 3.0 0.00 0.00 0.00 79 998.8
20260902070542 61 170 0.0 6.0 0.00 0.00 0.00 78 998.9
20260902070011 61 142 1.0 8.0 0.00 0.00 0.00 78 999.0
20260902065520 61 158 4.0 8.0 0.00 0.00 0.00 78 999.1
20260902065028 61 232 0.0 5.0 0.00 0.00 0.00 78 999.3
20260902064556 61 172 1.0 9.0 0.00 0.00 0.00 77 999.2
20260902064004 61 183 2.0 10.0 0.00 0.00 0.00 77 999.3
20260902063508 61 213 0.0 4.0 0.00 0.00 0.00 77 999.2
20260902063053 61 213 1.0 9.0 0.00 0.00 0.00 77 999.2
20260902062555 61 217 2.0 9.0 0.00 0.00 0.00 77 999.2
20260902062057 60 172 2.0 6.0 0.00 0.00 0.00 77 999.2
20260902061540 60 184 1.0 7.0 0.00 0.00 0.00 77 999.1
20260902061042 60 194 1.0 7.0 0.00 0.00 0.00 77 999.2
20260902060543 60 264 2.0 5.0 0.00 0.00 0.00 77 999.1
20260902060014 60 153 2.0 5.0 0.00 0.00 0.00 77 999.0
20260902055528 60 227 1.0 4.0 0.00 0.00 0.00 77 999.2
20260902055038 60 100 0.0 0.0 0.00 0.00 0.00 77 999.2
20260902054557 60 100 0.0 0.0 0.00 0.00 0.00 77 999.2
20260902054003 60 100 0.0 0.0 0.00 0.00 0.00 77 999.2
20260902053510 61 228 0.0 0.0 0.00 0.00 0.00 77 999.4
20260902053040 60 228 0.0 0.0 0.00 0.00 0.00 77 999.2
20260902052547 60 228 0.0 0.0 0.00 0.00 0.00 77 999.4
20260902052052 61 228 0.0 0.0 0.00 0.00 0.00 77 999.4
20260902051521 61 228 0.0 0.0 0.00 0.00 0.00 77 999.3
20260902051026 61 228 0.0 0.0 0.00 0.00 0.00 76 999.2
20260902050533 61 228 0.0 0.0 0.00 0.00 0.00 76 999.2
20260902050007 61 228 0.0 0.0 0.00 0.00 0.00 76 999.4
20260902045510 61 228 0.0 0.0 0.00 0.00 0.00 76 999.5
20260902045009 61 228 0.0 0.0 0.00 0.00 0.00 76 999.4
20260902044550 61 228 0.0 0.0 0.00 0.00 0.00 75 999.5
20260902044050 61 229 0.0 0.0 0.00 0.00 0.00 75 999.6
20260902043537 61 229 0.0 0.0 0.00 0.00 0.00 75 999.5
20260902043103 61 229 0.0 0.0 0.00 0.00 0.00 74 999.5
20260902042507 61 229 0.0 0.0 0.00 0.00 0.00 74 999.5
20260902042021 61 229 0.0 0.0 0.00 0.00 0.00 74 999.5
20260902041600 62 229 0.0 0.0 0.00 0.00 0.00 74 999.4
20260902041101 62 229 0.0 0.0 0.00 0.00 0.00 73 999.5
20260902040505 62 235 0.0 2.0 0.00 0.00 0.00 73 999.5
20260902040028 62 235 0.0 3.0 0.00 0.00 0.00 73 999.5
20260902035534 62 235 1.0 3.0 0.00 0.00 0.00 72 999.5
20260902035040 62 154 0.0 2.0 0.00 0.00 0.00 72 999.4
20260902034515 62 153 0.0 4.0 0.00 0.00 0.00 72 999.3
20260902034023 63 140 0.0 4.0 0.00 0.00 0.00 71 999.3
20260902033529 63 255 0.0 0.0 0.00 0.00 0.00 70 999.2
20260902033059 63 255 0.0 1.0 0.00 0.00 0.00 70 999.2
20260902032506 63 255 0.0 2.0 0.00 0.00 0.00 70 999.1
20260902032021 63 284 0.0 2.0 0.00 0.00 0.00 70 999.1
20260902031552 63 173 0.0 2.0 0.00 0.00 0.00 69 999.1
20260902031055 64 173 0.0 3.0 0.00 0.00 0.00 69 999.1
20260902030504 64 173 1.0 3.0 0.00 0.00 0.00 69 999.1
20260902030043 64 196 0.0 2.0 0.00 0.00 0.00 69 999.0
20260902025549 64 196 0.0 3.0 0.00 0.00 0.00 69 999.0
20260902025055 64 196 0.0 3.0 0.00 0.00 0.00 69 999.1
20260902024535 64 211 0.0 2.0 0.00 0.00 0.00 68 999.1
20260902024041 64 192 0.0 3.0 0.00 0.00 0.00 68 999.1
20260902023547 64 191 1.0 3.0 0.00 0.00 0.00 68 999.1
20260902023027 65 155 0.0 3.0 0.00 0.00 0.00 68 999.1
20260902022538 65 155 1.0 3.0 0.00 0.00 0.00 68 999.1
20260902022044 65 286 1.0 4.0 0.00 0.00 0.00 68 999.2
20260902021515 65 260 2.0 6.0 0.00 0.00 0.00 68 999.1
20260902021027 65 156 0.0 8.0 0.00 0.00 0.00 67 999.1
20260902020535 65 230 1.0 8.0 0.00 0.00 0.00 68 999.1
20260902020001 65 148 0.0 4.0 0.00 0.00 0.00 68 999.1
20260902015509 66 142 1.0 4.0 0.00 0.00 0.00 68 999.0
20260902015018 66 146 1.0 4.0 0.00 0.00 0.00 68 999.0
20260902014556 66 169 1.0 5.0 0.00 0.00 0.00 67 999.0
20260902014059 66 170 0.0 5.0 0.00 0.00 0.00 66 999.0
20260902013503 66 143 2.0 5.0 0.00 0.00 0.00 66 998.8
20260902013041 66 128 1.0 7.0 0.00 0.00 0.00 66 998.8
20260902012548 66 223 1.0 7.0 0.00 0.00 0.00 66 998.8
20260902012059 66 290 1.0 7.0 0.00 0.00 0.00 67 998.8
20260902011535 67 196 2.0 6.0 0.00 0.00 0.00 67 998.8
20260902011049 67 168 2.0 5.0 0.00 0.00 0.00 68 998.7
20260902010553 67 246 1.0 5.0 0.00 0.00 0.00 68 998.7
20260902010033 66 250 1.0 3.0 0.00 0.00 0.00 67 998.7
20260902005533 66 228 0.0 2.0 0.00 0.00 0.00 67 998.7
20260902005041 66 149 0.0 1.0 0.00 0.00 0.00 67 998.7
20260902004505 66 149 0.0 5.0 0.00 0.00 0.00 67 998.7
20260902004022 66 149 1.0 5.0 0.00 0.00 0.00 67 998.7
20260902003525 66 246 0.0 8.0 0.00 0.00 0.00 66 998.8
20260902003055 67 173 2.0 8.0 0.00 0.00 0.00 66 998.7
20260902002502 67 99 1.0 10.0 0.00 0.00 0.00 66 998.7
20260902002011 67 205 3.0 10.0 0.00 0.00 0.00 66 998.7
20260902001543 67 91 1.0 7.0 0.00 0.00 0.00 66 998.6
20260902001054 67 178 1.0 5.0 0.00 0.00 0.00 66 998.5
20260902000602 67 152 1.0 7.0 0.00 0.00 0.00 66 998.5
20260902000035 67 148 1.0 7.0 0.00 0.00 0.00 65 998.5
20260901235544 67 175 2.0 6.0 0.00 0.00 0.00 65 998.5
20260901235048 67 181 1.0 6.0 0.00 0.00 0.00 65 998.5
20260901234523 67 153 1.0 6.0 0.00 0.00 0.00 66 998.5
20260901234033 67 235 1.0 6.0 0.00 0.00 0.00 66 998.7
20260901233543 67 152 1.0 7.0 0.00 0.00 0.00 65 998.7
20260901233007 67 202 3.0 7.0 0.00 0.00 0.00 65 998.7